Youngstown, OH

5:43 AM EDT on May 25, 2018 (GMT -0400)
Youngstown-Warren Regional

Weather History for KYNG - September, 2014

Change the Weather History Date:

Thursday, September 4, 2014

  Actual Average Record
Temperature  
Mean Temperature 72 °F 66 °F  
Max Temperature 84 °F 77 °F 94 °F (1953)
Min Temperature 60 °F 55 °F 39 °F (1997)
Degree Days  
Heating Degree Days 0 2  
Month to date heating degree days 0 8  
Since 1 July heating degree days 52 46  
Cooling Degree Days 7 3  
Month to date cooling degree days 28 12  
Year to date cooling degree days 505 498  
Growing Degree Days 22 (Base 50)    
Moisture  
Dew Point 62 °F    
Average Humidity 72    
Maximum Humidity 97    
Minimum Humidity 46    
Precipitation  
Precipitation 0.00 in 0.12 in 1.84 in (2012)
Month to date precipitation 0.46 0.49  
Year to date precipitation 30.02 26.71  
Snow  
Snow 0.00 in 0.00 in - ()
Month to date snowfall 0.0 0.0  
Since 1 July snowfall 0.0 0.0  
Since 1 September snowfall 0.0 0.0  
Snow Depth 0.00 in    
Sea Level Pressure  
Sea Level Pressure 30.10 in    
Wind  
Wind Speed 5 mph (South)    
Max Wind Speed 15 mph    
Max Gust Speed 17 mph    
Visibility 10 miles    
Events Fog    
T = Trace of Precipitation, MM = Missing Value Source: NWS Daily Summary

Daily Weather History Graph

Daily Weather History Graph

Search for Another Location

Airport or City:

Astronomy

Sep. 04, 2014 Rise Set
Actual Time 6:52 AM EDT 7:50 PM EDT
Civil Twilight 6:23 AM EDT 8:18 PM EDT
Nautical Twilight 5:50 AM EDT 8:52 PM EDT
Astronomical Twilight 5:15 AM EDT 9:26 PM EDT
Moon 4:28 PM EDT (9/4) 1:39 AM EDT (9/4)
Length of Visible Light 13h 54m
Length of Day
12h 58m
Waxing Gibbous, 74% of the Moon is Illuminated
Sep 4
Waxing Gibbous
Sep 8
Full
Sep 15
Last Quarter
Sep 24
New
Oct 1
First Quarter

Hourly Weather History & Observations

Time (EDT) Temp. Heat Index Dew Point Humidity Pressure Visibility Wind Dir Wind Speed Gust Speed Precip Events Conditions
12:51 AM 68.0 °F - 62.1 °F 81% 30.10 in 10.0 mi SSE 5.8 mph - N/A   Partly Cloudy
1:51 AM 64.9 °F - 61.0 °F 87% 30.10 in 10.0 mi SSE 5.8 mph - N/A   Partly Cloudy
2:51 AM 64.9 °F - 61.0 °F 87% 30.09 in 10.0 mi SSE 4.6 mph - N/A   Scattered Clouds
3:51 AM 61.0 °F - 59.0 °F 93% 30.10 in 9.0 mi SE 3.5 mph - N/A Fog Shallow Fog
4:51 AM 62.1 °F - 60.1 °F 93% 30.10 in 9.0 mi ESE 3.5 mph - N/A Fog Shallow Fog
5:51 AM 61.0 °F - 59.0 °F 93% 30.10 in 9.0 mi East 4.6 mph - N/A Fog Shallow Fog
6:51 AM 64.0 °F - 62.1 °F 93% 30.09 in 8.0 mi SSE 5.8 mph - N/A   Scattered Clouds
7:51 AM 64.9 °F - 62.1 °F 90% 30.11 in 9.0 mi SSE 4.6 mph - N/A   Scattered Clouds
8:51 AM 70.0 °F - 64.0 °F 81% 30.10 in 10.0 mi SE 3.5 mph - N/A   Partly Cloudy
9:51 AM 73.9 °F - 64.9 °F 73% 30.12 in 10.0 mi South 5.8 mph - N/A   Clear
10:51 AM 77.0 °F - 64.4 °F 65% 30.14 in 10.0 mi South 4.6 mph - N/A   Clear
11:51 AM 80.1 °F 81.7 °F 64.0 °F 58% 30.13 in 10.0 mi Variable 4.6 mph - N/A   Scattered Clouds
1:51 PM 82.9 °F 83.3 °F 61.0 °F 47% 30.10 in 10.0 mi WSW 9.2 mph - N/A   Mostly Cloudy
2:51 PM 82.9 °F 82.8 °F 59.0 °F 44% 30.09 in 10.0 mi SW 10.4 mph - N/A   Mostly Cloudy
3:51 PM 81.0 °F 81.7 °F 61.0 °F 50% 30.09 in 10.0 mi SW 5.8 mph - N/A   Scattered Clouds
4:51 PM 82.4 °F 82.9 °F 60.8 °F 48% 30.09 in 10.0 mi SW 8.1 mph - N/A   Scattered Clouds
5:51 PM 82.0 °F 83.0 °F 62.1 °F 51% 30.09 in 10.0 mi SW 6.9 mph - N/A   Partly Cloudy
6:51 PM 79.0 °F - 64.0 °F 60% 30.08 in 10.0 mi South 4.6 mph - N/A   Partly Cloudy
7:51 PM 73.9 °F - 63.0 °F 68% 30.09 in 10.0 mi Calm Calm - N/A   Scattered Clouds
8:51 PM 75.0 °F - 62.1 °F 64% 30.09 in 10.0 mi South 3.5 mph - N/A   Partly Cloudy
9:51 PM 73.0 °F - 61.0 °F 66% 30.09 in 10.0 mi South 5.8 mph - N/A   Mostly Cloudy
10:51 PM 71.1 °F - 61.0 °F 70% 30.08 in 10.0 mi South 5.8 mph - N/A   Partly Cloudy
11:51 PM 70.0 °F - 61.0 °F 73% 30.11 in 10.0 mi Calm Calm - N/A   Scattered Clouds